[[{"header":{"parameterUnit":"m.s-1","parameterCategory":2,"la1":30.2992,"la2":30.254,"lo1":-89.0895,"lo2":-89.0443,"dy":0.0025,"dx":0.0025,"nx":19,"ny":19,"refTime":"2026-03-09T21:00:00:Z","depth":"0","parameterNumber":2,"parameterNumberName":"U-component_of_CURRENTS"},"data":[0,0,0,-0.2061,-0.2061,-0.2031,-0.2031,-0.204,-0.204,0,0,0,0,0,0,0,0,0,0,0,-0.2061,-0.2061,-0.2061,-0.206,-0.2031,-0.2031,-0.204,-0.204,0,0,0,0,0,0,0,0,0,0,0,-0.2062,-0.2061,-0.206,-0.206,-0.2031,-0.2031,-0.204,-0.2052,0,0,0,0,0,0,0,0,0,0,-0.2075,-0.2061,-0.2061,-0.206,-0.206,-0.2031,-0.2031,-0.2052,-0.2051,-0.2065,0,-0.2046,0,-0.2047,-0.2041,-0.2041,0,0,0,-0.2065,-0.2061,-0.206,-0.206,-0.206,-0.2031,-0.2046,-0.2051,-0.205,-0.2064,-0.2046,-0.2047,-0.2047,-0.2041,-0.2042,-0.2082,-0.2082,0,0,-0.2067,-0.2055,-0.206,-0.2059,-0.2035,-0.2047,-0.2045,-0.205,-0.2039,-0.2046,-0.2047,-0.2047,-0.2042,-0.2042,-0.2082,-0.2082,0,0,0,-0.2068,-0.2056,-0.2053,-0.2058,-0.2051,-0.2046,-0.2044,-0.2039,-0.2039,-0.2047,-0.2047,-0.2042,-0.2042,-0.2081,-0.2082,-0.211,0,0,0,-0.2069,-0.2057,-0.2054,-0.2047,-0.205,-0.2037,-0.2032,-0.2038,-0.2039,-0.2047,-0.2042,-0.2042,-0.2081,-0.2082,-0.2108,-0.2107,0,0,0,-0.2066,-0.2057,-0.2049,-0.2046,-0.2033,-0.2037,-0.2037,-0.2038,-0.2039,-0.2041,-0.2042,-0.2081,-0.2081,-0.2107,-0.2106,-0.2066,0,0,0,-0.2063,-0.2036,-0.2048,-0.2035,-0.2033,-0.2052,-0.2037,-0.2045,-0.2049,-0.2042,-0.2081,-0.2082,-0.2107,-0.2104,-0.2066,-0.187,-0.1855,0,0,-0.2031,-0.2031,-0.2031,-0.2042,-0.2061,-0.2058,-0.2084,-0.2075,-0.2066,-0.2083,-0.2083,-0.2109,-0.2105,-0.2066,-0.1912,-0.1896,0,0,0,-0.2025,-0.2021,-0.2031,-0.2044,-0.2066,-0.2091,-0.2092,-0.2095,-0.2102,-0.2069,-0.2116,-0.2113,-0.2086,-0.1968,-0.1956,-0.1859,-0.2085,-0.2085,-0.2085,-0.1955,-0.1998,-0.2009,-0.2059,-0.2082,-0.2118,-0.213,-0.2135,-0.2132,-0.214,-0.2142,-0.2139,-0.2015,-0.2003,-0.1907,-0.2155,-0.2155,-0.2155,-0.2155,-0.1931,-0.1938,-0.2007,-0.2035,-0.2089,-0.2121,-0.2164,-0.2167,-0.2169,-0.2175,-0.2148,-0.2012,-0.199,-0.1893,-0.2157,-0.2157,-0.2157,-0.2157,-0.2156,-0.1889,-0.1896,-0.1935,-0.1995,-0.2052,-0.2115,-0.2137,-0.2181,-0.2172,-0.2171,-0.1997,-0.1994,-0.1898,-0.2145,-0.2145,-0.2145,-0.2144,-0.2144,-0.2144,-0.1817,-0.1858,-0.188,-0.1953,-0.1989,-0.2053,-0.2121,-0.2104,-0.2032,-0.1996,-0.1994,-0.187,-0.2134,-0.2122,-0.2142,-0.2142,-0.2143,-0.2143,-0.2143,-0.1733,-0.1763,-0.1802,-0.1835,-0.1921,-0.1894,-0.199,-0.1869,-0.1859,-0.1757,-0.1644,-0.1883,-0.1841,-0.1848,-0.1829,-0.1771,-0.1771,-0.1771,-0.1771,-0.1655,-0.1682,-0.1725,-0.1768,-0.1813,-0.1822,-0.1639,-0.1557,-0.1454,-0.1372,-0.1443,-0.1403,-0.1422,-0.1356,-0.1374,-0.1346,-0.1167,-0.1167,-0.1166,-0.1581,-0.1632,-0.163,-0.1711,-0.1759,-0.1682,-0.1412,-0.1194,-0.1098,-0.1142,-0.1352,-0.1377,-0.1327,-0.1365,-0.1271,-0.1305,-0.1263,0,0]},{"header":{"parameterUnit":"m.s-1","parameterCategory":2,"la1":30.2992,"la2":30.254,"lo1":-89.0895,"lo2":-89.0443,"dy":0.0025,"dx":0.0025,"nx":19,"ny":19,"refTime":"2026-03-09T21:00:00:Z","depth":"0","parameterNumber":3,"parameterNumberName":"V-component_of_CURRENTS"},"data":[0,0,0,-0.0244,-0.0244,-0.0192,-0.0192,-0.0094,-0.0093,0,0,0,0,0,0,0,0,0,0,0,-0.0262,-0.0262,-0.0244,-0.0244,-0.0192,-0.0192,-0.0094,-0.0093,0,0,0,0,0,0,0,0,0,0,0,-0.0262,-0.0262,-0.0262,-0.0243,-0.0193,-0.0192,-0.0095,-0.0138,0,0,0,0,0,0,0,0,0,0,-0.0191,-0.0223,-0.0262,-0.0262,-0.0243,-0.0193,-0.0192,-0.0141,-0.0136,-0.0112,0,-0.0113,0,-0.0105,-0.0087,-0.0087,0,0,0,-0.0232,-0.0227,-0.0209,-0.0262,-0.0243,-0.0193,-0.0212,-0.0138,-0.0132,-0.0105,-0.0111,-0.0108,-0.0103,-0.0087,-0.0086,-0.0008,-0.0008,0,0,-0.0235,-0.0253,-0.0213,-0.0206,-0.024,-0.0214,-0.0211,-0.0135,-0.0135,-0.0111,-0.0105,-0.0102,-0.0086,-0.0085,-0.0008,-0.0008,0,0,0,-0.0251,-0.0255,-0.0239,-0.021,-0.0205,-0.0213,-0.0209,-0.0138,-0.0132,-0.0104,-0.0101,-0.0085,-0.0084,-0.0008,-0.0008,-0.0055,0,0,0,-0.0252,-0.0265,-0.0241,-0.0251,-0.0208,-0.0177,-0.0214,-0.0137,-0.0129,-0.0101,-0.0085,-0.0083,-0.0008,-0.0008,-0.0054,-0.0073,0,0,0,-0.0263,-0.0266,-0.0263,-0.0252,-0.0235,-0.0179,-0.0168,-0.0135,-0.0126,-0.0087,-0.0083,-0.0008,-0.0008,-0.0054,-0.0072,0.0008,0,0,0,-0.0279,-0.0295,-0.0263,-0.028,-0.0235,-0.0215,-0.0168,-0.0146,-0.0118,-0.0085,-0.0008,-0.0008,-0.0053,-0.0071,0.0007,0.0064,0.0071,0,0,-0.031,-0.0299,-0.031,-0.0281,-0.0288,-0.0221,-0.0204,-0.0147,-0.0099,-0.0029,-0.0027,-0.0055,-0.0071,0.0008,0.0087,0.0093,0,0,0,-0.0327,-0.0339,-0.0335,-0.0331,-0.0297,-0.0254,-0.0193,-0.0146,-0.0079,-0.0082,-0.0033,-0.0042,0.001,0.0044,0.0049,0.0156,-0.0006,-0.0006,-0.0006,-0.0389,-0.0376,-0.0396,-0.0372,-0.0347,-0.0271,-0.0218,-0.0137,-0.01,-0.0069,-0.0065,-0.0018,0.0015,0.002,0.0129,-0.0047,-0.0047,-0.0047,-0.0047,-0.0454,-0.0471,-0.0441,-0.0457,-0.0395,-0.0364,-0.0236,-0.0186,-0.007,-0.0071,-0.0017,0.0009,0.0023,0.0137,-0.005,-0.0049,-0.0049,-0.0049,-0.0049,-0.0505,-0.0512,-0.0515,-0.0524,-0.0494,-0.0417,-0.0319,-0.0229,-0.0111,-0.0069,0.0043,0.0044,0.0138,-0.0021,-0.0021,-0.0021,-0.0021,-0.0021,-0.002,-0.0556,-0.0559,-0.0592,-0.0591,-0.0584,-0.0524,-0.0363,-0.0246,-0.0071,0.0013,0.0015,0.0174,-0.0008,-0.0017,-0.0017,-0.0017,-0.0018,-0.0018,-0.0018,-0.0623,-0.062,-0.0665,-0.0673,-0.0639,-0.0499,-0.0403,-0.0127,0.0004,0.011,0.0274,0.0093,0.0133,0.013,0.0127,0.0165,0.0165,0.0165,0.0165,-0.0662,-0.0668,-0.069,-0.0686,-0.0631,-0.0478,-0.019,0.0023,0.027,0.0391,0.0408,0.0403,0.0391,0.0446,0.0436,0.0439,0.0555,0.0556,0.0557,-0.0701,-0.0702,-0.0692,-0.0673,-0.0601,-0.0382,-0.0036,0.0289,0.0546,0.0581,0.0549,0.0532,0.053,0.0502,0.0588,0.0565,0.0569,0,0]}],[{"header":{"parameterUnit":"m.s-1","parameterCategory":2,"la1":30.2992,"la2":30.254,"lo1":-89.0895,"lo2":-89.0443,"dy":0.0025,"dx":0.0025,"nx":19,"ny":19,"refTime":"2026-03-09T21:00:00:Z","depth":"2","parameterNumber":2,"parameterNumberName":"U-component_of_CURRENTS"},"data":[0,0,0,-0.1728,-0.1729,-0.175,-0.175,-0.1767,-0.1767,0,0,0,0,0,0,0,0,0,0,0,-0.1715,-0.1716,-0.1728,-0.1729,-0.175,-0.175,-0.1767,-0.1767,0,0,0,0,0,0,0,0,0,0,0,-0.1715,-0.1716,-0.1716,-0.1729,-0.175,-0.175,-0.1767,-0.1753,0,0,0,0,0,0,0,0,0,0,-0.1733,-0.1721,-0.1715,-0.1716,-0.1729,-0.175,-0.175,-0.1752,-0.1753,-0.1755,0,-0.1757,0,-0.1766,-0.1768,-0.1768,0,0,0,-0.1726,-0.172,-0.173,-0.1716,-0.1729,-0.175,-0.174,-0.1753,-0.1755,-0.1757,-0.1758,-0.1759,-0.1766,-0.1768,-0.1768,-0.1801,-0.1801,0,0,-0.1724,-0.1716,-0.1729,-0.1731,-0.1733,-0.1739,-0.174,-0.1754,-0.1752,-0.1758,-0.1759,-0.1767,-0.1768,-0.1769,-0.1801,-0.1801,0,0,0,-0.1723,-0.1715,-0.1724,-0.173,-0.1737,-0.174,-0.1741,-0.1751,-0.1756,-0.1759,-0.1767,-0.1768,-0.1769,-0.1801,-0.1801,-0.1822,0,0,0,-0.1722,-0.1714,-0.1724,-0.1718,-0.1736,-0.1745,-0.1738,-0.1755,-0.1757,-0.1767,-0.1768,-0.1769,-0.18,-0.1801,-0.1821,-0.1814,0,0,0,-0.1715,-0.1714,-0.1716,-0.1718,-0.173,-0.1746,-0.1751,-0.1755,-0.1762,-0.1768,-0.1769,-0.18,-0.1801,-0.182,-0.1813,-0.1785,0,0,0,-0.1704,-0.1702,-0.1716,-0.1725,-0.173,-0.176,-0.1751,-0.1769,-0.1777,-0.1769,-0.18,-0.1801,-0.1819,-0.1812,-0.1785,-0.1615,-0.1602,0,0,-0.1696,-0.1701,-0.171,-0.1723,-0.1751,-0.1757,-0.1786,-0.1789,-0.1785,-0.1794,-0.1795,-0.1821,-0.1813,-0.1785,-0.1647,-0.1632,0,0,0,-0.1704,-0.1707,-0.172,-0.174,-0.1768,-0.179,-0.1802,-0.1806,-0.1815,-0.1792,-0.1826,-0.182,-0.1802,-0.1699,-0.1689,-0.1804,-0.1803,-0.1803,-0.1803,-0.1662,-0.1695,-0.1713,-0.1754,-0.1778,-0.1815,-0.1827,-0.1833,-0.1836,-0.1843,-0.1842,-0.184,-0.1733,-0.1722,-0.1855,-0.1855,-0.1856,-0.1856,-0.1856,-0.1648,-0.1655,-0.1708,-0.1736,-0.1778,-0.1807,-0.1846,-0.1853,-0.1856,-0.1864,-0.1845,-0.1733,-0.1711,-0.1857,-0.1857,-0.1857,-0.1857,-0.1857,-0.1856,-0.1612,-0.1618,-0.165,-0.1697,-0.174,-0.1794,-0.1804,-0.1848,-0.1855,-0.1856,-0.1716,-0.1713,-0.1828,-0.1842,-0.1842,-0.1842,-0.1842,-0.1842,-0.1842,-0.1548,-0.1584,-0.1593,-0.1654,-0.1673,-0.1716,-0.1778,-0.1771,-0.173,-0.1708,-0.1706,-0.1835,-0.1835,-0.1827,-0.184,-0.184,-0.184,-0.1841,-0.1841,-0.1476,-0.1501,-0.1506,-0.1522,-0.1566,-0.1525,-0.1628,-0.1559,-0.1564,-0.1498,-0.1609,-0.1615,-0.158,-0.1587,-0.1571,-0.1518,-0.1518,-0.1518,-0.1518,-0.1409,-0.1431,-0.1402,-0.1397,-0.1406,-0.1423,-0.1278,-0.1238,-0.1279,-0.1271,-0.1282,-0.1255,-0.1272,-0.122,-0.1235,-0.1213,-0.1066,-0.1066,-0.1065,-0.1343,-0.1352,-0.129,-0.1309,-0.1313,-0.1259,-0.1055,-0.0886,-0.089,-0.1053,-0.126,-0.1476,-0.1465,-0.1481,-0.1426,-0.1441,-0.1415,0,0]},{"header":{"parameterUnit":"m.s-1","parameterCategory":2,"la1":30.2992,"la2":30.254,"lo1":-89.0895,"lo2":-89.0443,"dy":0.0025,"dx":0.0025,"nx":19,"ny":19,"refTime":"2026-03-09T21:00:00:Z","depth":"2","parameterNumber":3,"parameterNumberName":"V-component_of_CURRENTS"},"data":[0,0,0,-0.0354,-0.0353,-0.0294,-0.0294,-0.0218,-0.0218,0,0,0,0,0,0,0,0,0,0,0,-0.0374,-0.0373,-0.0354,-0.0353,-0.0294,-0.0294,-0.0218,-0.0218,0,0,0,0,0,0,0,0,0,0,0,-0.0374,-0.0373,-0.0373,-0.0352,-0.0295,-0.0294,-0.0218,-0.0261,0,0,0,0,0,0,0,0,0,0,-0.0317,-0.0344,-0.0373,-0.0373,-0.0352,-0.0295,-0.0294,-0.0263,-0.0258,-0.0246,0,-0.0241,0,-0.023,-0.0213,-0.0213,0,0,0,-0.0345,-0.0348,-0.0328,-0.0373,-0.0352,-0.0295,-0.0319,-0.026,-0.0255,-0.024,-0.024,-0.0237,-0.0229,-0.0213,-0.0212,-0.0169,-0.0169,0,0,-0.0349,-0.0366,-0.0331,-0.0325,-0.0341,-0.0321,-0.0317,-0.0257,-0.0256,-0.024,-0.0235,-0.0228,-0.0212,-0.0212,-0.0169,-0.0169,0,0,0,-0.0363,-0.0368,-0.0349,-0.0328,-0.0319,-0.0319,-0.0315,-0.0259,-0.0251,-0.0234,-0.0227,-0.0212,-0.0211,-0.0169,-0.0169,-0.0223,0,0,0,-0.0364,-0.0376,-0.035,-0.036,-0.032,-0.029,-0.0318,-0.0255,-0.0248,-0.0227,-0.0212,-0.021,-0.0169,-0.0169,-0.0221,-0.025,0,0,0,-0.0375,-0.0378,-0.0371,-0.0361,-0.0339,-0.0291,-0.028,-0.0254,-0.0244,-0.0213,-0.021,-0.0169,-0.0169,-0.022,-0.0247,-0.0212,0,0,0,-0.0394,-0.04,-0.0372,-0.0381,-0.0339,-0.0323,-0.028,-0.0261,-0.0239,-0.0212,-0.0169,-0.0169,-0.0219,-0.0245,-0.0211,-0.0177,-0.0178,0,0,-0.0415,-0.0403,-0.041,-0.0384,-0.039,-0.033,-0.0325,-0.0276,-0.0233,-0.0187,-0.0186,-0.0222,-0.0247,-0.0212,-0.018,-0.0181,0,0,0,-0.0426,-0.0435,-0.0431,-0.0427,-0.0398,-0.0373,-0.0319,-0.0285,-0.0238,-0.0221,-0.0208,-0.0221,-0.0197,-0.0175,-0.0176,-0.0169,-0.0169,-0.0169,-0.0169,-0.0476,-0.0467,-0.0487,-0.0472,-0.0455,-0.0399,-0.0367,-0.0307,-0.0267,-0.0251,-0.0255,-0.0253,-0.0231,-0.0231,-0.0239,-0.0239,-0.0239,-0.024,-0.024,-0.0531,-0.055,-0.0535,-0.0551,-0.0513,-0.0496,-0.0412,-0.0371,-0.0302,-0.0282,-0.0255,-0.0221,-0.0234,-0.0244,-0.0243,-0.0242,-0.0242,-0.0242,-0.0241,-0.0576,-0.0586,-0.0593,-0.0614,-0.0607,-0.0555,-0.0518,-0.0447,-0.0354,-0.0335,-0.0256,-0.0255,-0.0273,-0.0305,-0.0305,-0.0305,-0.0305,-0.0305,-0.0305,-0.0621,-0.0629,-0.0668,-0.068,-0.0691,-0.0671,-0.0577,-0.0511,-0.0383,-0.0307,-0.0306,-0.0274,-0.0272,-0.0275,-0.0305,-0.0305,-0.0305,-0.0305,-0.0305,-0.0682,-0.0685,-0.0747,-0.0771,-0.079,-0.0776,-0.0673,-0.0498,-0.0401,-0.0321,-0.0265,-0.0266,-0.0234,-0.0233,-0.0233,-0.0251,-0.0251,-0.0251,-0.0251,-0.0723,-0.073,-0.0818,-0.0865,-0.088,-0.0827,-0.0707,-0.0502,-0.0314,-0.0232,-0.0233,-0.0229,-0.0231,-0.0198,-0.0198,-0.0197,-0.0205,-0.0205,-0.0205,-0.0766,-0.0789,-0.086,-0.0906,-0.0926,-0.0867,-0.0742,-0.0469,-0.0223,-0.0205,-0.0247,-0.0243,-0.0239,-0.0242,-0.0191,-0.019,-0.0189,0,0]}],[{"header":{"parameterUnit":"m.s-1","parameterCategory":2,"la1":30.2992,"la2":30.254,"lo1":-89.0895,"lo2":-89.0443,"dy":0.0025,"dx":0.0025,"nx":19,"ny":19,"refTime":"2026-03-09T21:00:00:Z","depth":"4","parameterNumber":2,"parameterNumberName":"U-component_of_CURRENTS"},"data":[0,0,0,-0.1232,-0.1235,-0.1346,-0.1346,-0.1405,-0.1406,0,0,0,0,0,0,0,0,0,0,0,-0.1198,-0.1199,-0.1232,-0.1235,-0.1346,-0.1346,-0.1405,-0.1406,0,0,0,0,0,0,0,0,0,0,0,-0.1198,-0.1199,-0.12,-0.1236,-0.1346,-0.1346,-0.1405,-0.1341,0,0,0,0,0,0,0,0,0,0,-0.1244,-0.123,-0.1199,-0.12,-0.1236,-0.1345,-0.1346,-0.1339,-0.1345,-0.1333,0,-0.1361,0,-0.1383,-0.1408,-0.1408,0,0,0,-0.1232,-0.1225,-0.125,-0.12,-0.1237,-0.1345,-0.1295,-0.1343,-0.135,-0.134,-0.1362,-0.1365,-0.1384,-0.1408,-0.1408,-0.1453,-0.1453,0,0,-0.1226,-0.1219,-0.1246,-0.1255,-0.1279,-0.1291,-0.1298,-0.1348,-0.1361,-0.1363,-0.1367,-0.1385,-0.1409,-0.1409,-0.1452,-0.1453,0,0,0,-0.1211,-0.1214,-0.1241,-0.1252,-0.1278,-0.1295,-0.1303,-0.1359,-0.1368,-0.1368,-0.1386,-0.1409,-0.1409,-0.1452,-0.1453,-0.147,0,0,0,-0.1207,-0.1206,-0.1238,-0.1235,-0.1278,-0.1333,-0.1313,-0.1364,-0.1371,-0.1385,-0.1409,-0.1409,-0.1452,-0.1452,-0.1469,-0.1455,0,0,0,-0.1191,-0.1204,-0.122,-0.1234,-0.1283,-0.1333,-0.1345,-0.1367,-0.1381,-0.1408,-0.141,-0.1452,-0.1452,-0.1468,-0.1455,-0.1422,0,0,0,-0.1173,-0.1197,-0.122,-0.1257,-0.1282,-0.1339,-0.1345,-0.1394,-0.142,-0.1409,-0.1452,-0.1453,-0.1468,-0.1454,-0.1422,-0.1233,0,0,0,-0.1185,-0.1199,-0.1219,-0.1241,-0.129,-0.1323,-0.1372,-0.1411,-0.1419,-0.1428,-0.1431,-0.1469,-0.1455,-0.1422,-0.1266,0,0,0,0,-0.121,-0.1224,-0.1244,-0.1284,-0.1328,-0.1367,-0.1413,-0.1426,-0.1457,-0.1439,-0.1475,-0.1465,-0.1443,-0.1335,-0.1455,-0.1455,-0.1455,-0.1455,-0.1455,-0.1196,-0.1226,-0.1258,-0.1301,-0.1342,-0.1403,-0.1428,-0.1452,-0.147,-0.1487,-0.1484,-0.1476,-0.1365,-0.1501,-0.1501,-0.1501,-0.1501,-0.1501,-0.1502,-0.1193,-0.1202,-0.1257,-0.13,-0.1351,-0.1398,-0.1444,-0.1466,-0.1478,-0.1499,-0.1478,-0.1368,-0.1503,-0.1503,-0.1503,-0.1503,-0.1502,-0.1502,-0.1502,-0.1159,-0.1165,-0.1212,-0.1271,-0.1328,-0.1392,-0.1394,-0.1451,-0.1474,-0.1474,-0.1335,-0.1469,-0.1458,-0.1466,-0.1466,-0.1465,-0.1465,-0.1465,-0.1465,-0.1092,-0.1137,-0.1161,-0.1234,-0.1263,-0.1308,-0.1367,-0.1352,-0.1397,-0.1313,-0.1471,-0.1463,-0.1464,-0.1455,-0.1462,-0.1463,-0.1463,-0.1463,-0.1464,-0.1022,-0.1055,-0.107,-0.1098,-0.1147,-0.1159,-0.1248,-0.119,-0.1152,-0.1098,-0.1213,-0.1226,-0.1189,-0.1196,-0.1176,-0.11,-0.1098,-0.1095,0,-0.0958,-0.0982,-0.0969,-0.0967,-0.0959,-0.1047,-0.0949,-0.0961,-0.0999,-0.0972,-0.1154,-0.1287,-0.1295,-0.1258,-0.1261,-0.1238,0,0,0,-0.0898,-0.0904,-0.0857,-0.0874,-0.0855,-0.0845,-0.0911,-0.086,-0.1019,-0.0917,-0.1034,-0.105,-0.1291,-0.1454,-0.1427,-0.1429,-0.1412,0,0]},{"header":{"parameterUnit":"m.s-1","parameterCategory":2,"la1":30.2992,"la2":30.254,"lo1":-89.0895,"lo2":-89.0443,"dy":0.0025,"dx":0.0025,"nx":19,"ny":19,"refTime":"2026-03-09T21:00:00:Z","depth":"4","parameterNumber":3,"parameterNumberName":"V-component_of_CURRENTS"},"data":[0,0,0,-0.0282,-0.0282,-0.0249,-0.0249,-0.02,-0.02,0,0,0,0,0,0,0,0,0,0,0,-0.0294,-0.0294,-0.0282,-0.0282,-0.0249,-0.0249,-0.02,-0.02,0,0,0,0,0,0,0,0,0,0,0,-0.0294,-0.0294,-0.0294,-0.0282,-0.0249,-0.0249,-0.0201,-0.0225,0,0,0,0,0,0,0,0,0,0,-0.0257,-0.0277,-0.0294,-0.0294,-0.0281,-0.025,-0.0249,-0.0226,-0.0224,-0.0215,0,-0.0215,0,-0.0209,-0.0197,-0.0197,0,0,0,-0.0275,-0.028,-0.0266,-0.0294,-0.0281,-0.025,-0.0262,-0.0225,-0.0222,-0.0211,-0.0214,-0.0212,-0.0208,-0.0197,-0.0197,-0.0181,-0.0182,0,0,-0.0277,-0.0291,-0.0268,-0.0264,-0.0279,-0.0263,-0.0261,-0.0223,-0.0225,-0.0214,-0.0211,-0.0207,-0.0197,-0.0196,-0.0181,-0.0181,0,0,0,-0.0286,-0.0292,-0.0279,-0.0266,-0.0262,-0.0262,-0.026,-0.0227,-0.0221,-0.0211,-0.0206,-0.0196,-0.0196,-0.0181,-0.0181,-0.0233,0,0,0,-0.0287,-0.0298,-0.028,-0.0289,-0.0263,-0.0247,-0.0265,-0.0224,-0.022,-0.0207,-0.0196,-0.0195,-0.0181,-0.0181,-0.0232,-0.0261,0,0,0,-0.0294,-0.0299,-0.0296,-0.029,-0.0278,-0.0247,-0.024,-0.0223,-0.0217,-0.0197,-0.0195,-0.0181,-0.0181,-0.023,-0.0258,-0.0254,0,0,0,-0.0308,-0.0314,-0.0296,-0.0307,-0.0278,-0.0273,-0.024,-0.0232,-0.0219,-0.0196,-0.0181,-0.0181,-0.0229,-0.0256,-0.0253,-0.023,0,0,0,-0.0324,-0.0317,-0.0324,-0.0307,-0.0319,-0.0277,-0.0286,-0.0252,-0.022,-0.0191,-0.0191,-0.0232,-0.0258,-0.0254,-0.0251,0,0,0,0,-0.0334,-0.0343,-0.0343,-0.0347,-0.0331,-0.0325,-0.0289,-0.0268,-0.0242,-0.0214,-0.0225,-0.0239,-0.0235,-0.0217,-0.0183,-0.0183,-0.0183,-0.0183,-0.0183,-0.0372,-0.0369,-0.0391,-0.0388,-0.0384,-0.0356,-0.0344,-0.0308,-0.0272,-0.0267,-0.0276,-0.0303,-0.0286,-0.0265,-0.0265,-0.0265,-0.0265,-0.0265,-0.0266,-0.0412,-0.0429,-0.0433,-0.0454,-0.0443,-0.0445,-0.04,-0.0372,-0.0341,-0.0313,-0.0306,-0.0267,-0.027,-0.0269,-0.0269,-0.0268,-0.0268,-0.0267,-0.0267,-0.0442,-0.0452,-0.047,-0.0506,-0.0524,-0.0502,-0.0498,-0.0455,-0.0395,-0.0392,-0.0342,-0.0329,-0.033,-0.0378,-0.0378,-0.0378,-0.0378,-0.0379,-0.0379,-0.0464,-0.0483,-0.0527,-0.0559,-0.0585,-0.0594,-0.0556,-0.0521,-0.0458,-0.04,-0.0402,-0.034,-0.0336,-0.0335,-0.0381,-0.038,-0.038,-0.038,-0.038,-0.0497,-0.0512,-0.0576,-0.0613,-0.0665,-0.0659,-0.063,-0.0529,-0.049,-0.0429,-0.0388,-0.0387,-0.0361,-0.0357,-0.0355,-0.0408,-0.0408,-0.0408,0,-0.052,-0.0532,-0.0623,-0.0683,-0.0714,-0.0696,-0.0626,-0.0567,-0.0477,-0.047,-0.0498,-0.0458,-0.0454,-0.043,-0.0425,-0.0427,0,0,0,-0.0547,-0.0573,-0.0641,-0.0704,-0.0737,-0.0652,-0.0604,-0.056,-0.0492,-0.0428,-0.0405,-0.0406,-0.0417,-0.0386,-0.0343,-0.0339,-0.0334,0,0]}]]